Regional Weather Roundup
Issued by NWS

Home | Current Version | Previous Version | Text Only | Print | Product List | Glossary On
Versions: 1 2 3 4 5 6 7 8 9 10 11 12 13 14 15 16 17 18 19 20 21 22 23 24 25 26 27 28 29 30 31 32 33 34 35 36 37 38 39 40 41 42 43 44 45 46 47 48 49 50
000
ASUS43 KTOP 271859
RWRKS

WEATHER ROUNDUP FOR KANSAS
NATIONAL WEATHER SERVICE GOODLAND KS
100 PM CST THU NOV 27 2014

NOTE:  "FAIR" INDICATES FEW OR NO CLOUDS BELOW 12,000 FEET WITH NO
SIGNIFICANT WEATHER AND/OR OBSTRUCTIONS TO VISIBILITY.

KSZ001>006-013>018-027>032-041>047-272000-
NORTHWEST KANSAS

CITY           SKY/WX    TMP DP  RH WIND       PRES   REMARKS
GOODLAND       SUNNY     61  27  27 S17G25    30.14F
HAYS           SUNNY     46  19  34 S22G28    30.28F
HILL CITY      SUNNY     47  22  37 S17G24    30.23F
RUSSELL        SUNNY     43  19  38 S16G26    30.30F
$$

KSZ061>065-074>080-084>089-272000-
SOUTHWEST KANSAS

CITY           SKY/WX    TMP DP  RH WIND       PRES   REMARKS
DODGE CITY     SUNNY     49  20  31 S23G31    30.28F
ELKHART          N/A     59  29  32 S12         N/A
GARDEN CITY    SUNNY     50  24  36 S20G26    30.24F
GREAT BEND     SUNNY     45  19  36 S22G28    30.32F
LIBERAL        MOSUNNY   54  28  37 SW20      30.28F
$$

KSZ066>073-081>083-090>101-272000-
SOUTHEAST KANSAS

CITY           SKY/WX    TMP DP  RH WIND       PRES   REMARKS
CHANUTE        SUNNY     38  22  52 S7        30.48F
COFFEYVILLE    SUNNY     38  24  57 S5        30.50F
HUTCHINSON     SUNNY     42  18  37 S17       30.39F
MEDICINE LODGE   N/A     41  22  46 S14G24    30.37F
NEWTON         SUNNY     43  16  33 S16       30.41F
PARSONS        SUNNY     40  23  50 S7        30.50F
WICHITA INTL   MOSUNNY   42  16  34 S16       30.41F
WICHITA JABRA  SUNNY     41  16  36 S13       30.42F
WICHITA MCCONL SUNNY     41  14  33 S13       30.42F
WINFIELD       SUNNY     43  20  39 S8        30.45F
$$

KSZ007>012-019>026-033>040-048>060-102>105-272000-
NORTHEAST KANSAS

CITY           SKY/WX    TMP DP  RH WIND       PRES   REMARKS
CONCORDIA      SUNNY     37  17  44 S14       30.35F WCI  28
EMPORIA        SUNNY     38  21  50 SE9       30.44F
LAWRENCE       SUNNY     34  20  56 S7        30.46F HAZE
MANHATTAN      SUNNY     38  20  48 VRB3      30.42F
OLATHE IND     SUNNY     33  21  61 SW5       30.46F
OLATHE EXE     SUNNY     34  21  59 CALM      30.45F
SALINA         SUNNY     43  17  35 S15       30.38F
TOPEKA BILLARD SUNNY     37  20  50 S7        30.46F
TOPEKA FORBES  SUNNY     37  21  52 SE8       30.44F
$$


USA.gov is the U.S. government's official web portal to all federal, state and local government web resources and services.